Погода Лиепая

Погода Лиепая : погода сейчас, прогноз погоды и архив. Всё, что Вы хотите узнать о погоде Лиепая!

Поиск расширенной информации на нашем сайте:

Другие новости

Новости СМИ2

Главная страница сайта

Новости сайта

03.07.2017

Напоминаем, что на нашем специализированном сайте Метеоцентр.Азия вы можете получить высокодетализированные автоматические прогнозы погоды по пунктам России, СНГ и мира в авиационном формате (включающие направление и скорость ветра, видимость, явления погоды, количество и форму облачности, нижнюю и верхнюю границу облачности).


Погода Лиепая - сегодня

Время (UTC), дата Ветер
(°,м/с) 
Видим.   Явления Облачность Т
(°С)
Тd
(°С)
f(%) Тe
(°С)
Pmin
(гПа)
dP
(гПа)
Po
(мм)
O2
(г/м3)
Тmin Tmax R s Состояние
почвы
03 19.09.17 260 (З) 10 км    8/8 1050 м средняя 
[Sc|Ac trans]
+13.1 +7.7 70 +13  1008.2  -0.1  756  289           
06 19.09.17 260 (З) 6-11{11}  10 км    10/5 750 м кучево-дожд., средняя 
[Cb calv|Ac und]
+13.6 +8.6 72 +13  1009.1  0.9  756  288  +11.1    0.4     
09 19.09.17 250 (З) 6-11{11}  20000 м    10/8 600 м кучево-дожд., средняя 
[Cb calv|Ac und]
+14.2 +10.3 77 +14  1010.3  1.2  757  287           
12 19.09.17 250 (З) 6-10{11}  20000 м    9/3 600 м средняя, верхняя 
[Cu med, cong|Ac trans|Ci sp]
+14.7 +9 69 +14  1012.3  759  289           
15 19.09.17 250 (З) 4{10}  20000 м    9/3 600 м средняя, верхняя 
[Cu med, cong|Ac trans|Ci sp]
+13.9 +9.3 74 +14  1013.2  0.9  759  289           
18 19.09.17 240 (ЮЗ) 5{10}  10 км    8/6 750 м верхняя 
[Sc|Ci sp]
+13.9 +10.1 78 +14  1014.2  760  289    +15.6       
21 19.09.17 230 (ЮЗ) 10 км    8/3 600 м верхняя 
[Sc|Ci sp]
+14.2 +10 76 +15  1014.8  0.6  760  289           
00 20.09.17 230 (ЮЗ) 10 км  {ливн. осадки}  ясно 
+13.7 +9.5 76 +13  1015.1  0.3  761  290           
03 20.09.17 220 (ЮЗ) 10 км    6/6 700 м 
[Sc]
+13.8 +10.3 79 +15  1015.6  0.5  761  289           
06 20.09.17 150 (ЮВ) 10 км  в посл. час ливневой дождь  8/6 720 м кучево-дожд., средняя 
[Cb calv|Ac trans]
+10.9 +9.9 94 +12  1016.8  1.2  762  293  +9.8       
09 20.09.17 210 (ЮЗ) 20000 м    8/4 600 м кучево-дожд., средняя 
[Cb calv|Ac trans]
+16 +10.5 70 +18  1017.5  0.7  762  287           
12 20.09.17 220 (ЮЗ) 20000 м    8/3 600 м средняя 
[Cu med, cong|Ac trans]
+16.8 +12.3 75 +21  1018  0.5  763  287           
15 20.09.17 210 (ЮЗ) 20000 м    6/3 600 м средняя, верхняя 
[Cu med, cong|Ac trans|Ci sp]
+15.9 +10.4 70 +18  1018.5  0.5  763  288           
18 20.09.17 070 (В) 4000 м  туман поземный  4/0 средняя 
[Ac trans]
+9.4 +8.9 97 +10  1019.4  0.9  764  295    +16.9       
21 20.09.17 070 (В) 2000 м  дымка  ясно 
+8.2 +8 99 +9  1019.8  0.4  764  297           
00 21.09.17 110 (В) 4000 м  дымка  3/0 верхняя 
[Ci fib]
+8.2 +8.1 99 +8  1020.5  0.7  765  298           
03 21.09.17 090 (В) 4000 м  дымка  ясно 
+7.9 +7.8 99 +8  1020.5  765  298           
06 21.09.17 060 (СВ) 4000 м  дымка  3/3 600 м 
[Sc]
+9.6 +8.9 95 +10  1020.4  -0.1  765  295  +7         
09 21.09.17 040 (СВ) 10 км    8/3 600 м кучево-дожд., средняя 
[Cb calv|Ac trans]
+12.6 +10.4 86 +13  1020.3  -0.1  765  292           
12 21.09.17 020 (С) 10 км    9/3 600 м кучево-дожд., средняя 
[Cb calv|Ac trans]
+13.9 +11.7 87 +17  1018.7  -1.6  764  291           
15 21.09.17 050 (СВ) 10 км  слаб. ливневой дождь  10/8 630 м кучево-дожд., средняя 
[Cb cap|Ac trans]
+13.2 +11.9 92 +16  1018.6  -0.1  763  290           
18 21.09.17 020 (С) 10 км  слаб. ливневой дождь  10/10 330 м кучево-дожд. 
[Cb cap]
+12.6 +12.1 97 +16  1018.3  -0.3  763  291    +14.7     
21 21.09.17 040 (СВ) 10 км  {ливн. осадки}  10/4 600 м кучево-дожд., средняя 
[Cb calv|Ac trans]
+12.4 +11.9 97 +15  1017.6  -0.7  763  291           
00 22.09.17 040 (СВ) 10 км  {ливн. осадки}  10/8 420 м кучево-дожд., средняя 
[Cb calv|Ac trans]
+12.4 +11.7 95 +15  1017.2  -0.4  762  292           
03 22.09.17 050 (СВ) 10 км  {ливн. осадки}  10/6 400 м кучево-дожд., средняя 
[Cb calv|Ac trans]
+12.4 +11.5 94 +16  1016.9  -0.3  762  291           
Время (UTC), дата Ветер
(°,м/с) 
Видим.   Явления Облачность Т
(°С)
Тd
(°С)
f(%) Тe
(°С)
Pmin
(гПа)
dP
(гПа)
Po
(мм)
O2
(г/м3)
Тmin Tmax R s Состояние
почвы

Для получения пояснительной информации подведите курсор к названию столбца.

ПОГОДА Лиепая - архив

Всё, что Вы хотите узнать о погоде Лиепая - удобно и подробно!

Выберите нужную дату (начиная с 1 января 2015* года) и нажмите кнопку "Найти".
Будут отображены архивные сводки погоды по пункту Лиепая, начиная с указанной даты.


Отображать данные в формате CSV (для использования в таблицах Excel)


Внимание! Наш архив погоды предназначен исключительно для личного некоммерческого использования в познавательных целях. Если Вам необходимы официальные справки о состоянии погоды (для производственных, юридических, коммерческих и т.п. целей), обращайтесь в органы Росгидромета.

*Примечание: данная дата относится к архиву по метеостанциям СССР (Россия, СНГ, Балтия).
Архив по метеостанциям Зарубежной Европы и Азии (кроме Китая) хранится 10 дней, по другим регионам земного шара (Китай, Африка, Америка, Австралия, Океания) - 1 день.

Лиепая - район местоположения метеостанции


Название, широта, долгота, высота метеостанции:
Лиепая 56.5°ш. 21°д. 7 м над ур. моря [Латвия]

Дополнительная информация

В oтличие oт бoльшинства пoгoдных сайтoв мы публикуем пoдрoбную метеoинфoрмацию в детальнoм прoфессиoнальнoм фoрмате.

Характеристики температуры и влажнoсти вoздуха измеряются на высoте 2 м в тени вдали oт зданий и деревьев.
Скoрoсть ветра измеряется на высoте 10 м (на урoвне рoста челoвека скoрoсть ветра ниже в 1.5-2 раза). Если метеoстанция нахoдится в гoрoде или в лесу, тo скoрoсть ветра занижена на 2-4 м/с пo сравнению с oткрытым местoм. Скoрoсть ветра над акватoриями крупных рек и oзёр, а также на вершинах хoлмoв на 2-5 м/с выше, чем в oбычных услoвиях.
Атмoсфернoе давление в разных тoчках местнoсти мoжет значительнo oтличаться oт давления на метеoстанции, в зависимoсти oт услoвий рельефа (при пoдъёме на 10 м давление пoнижается примернo на 1 мм рт.ст.).